TIME,DELAY(SENSOR),PRES,T(CTD),SAL,OXYGEN,RAWTEMP,T(OPTODE),TCPHASE,FLUOR,BETA(BETA700),BETA(BETA412),BETA(BETA440),CDOM,C(CSC),ED(ED411.90),ED(ED443.80),ED(ED489.40),ED(ED554.70),LU(LU412.20),LU(LU443.80),LU(LU489.40),LU(LU555.00),COMP,TILTX,TILTX(TILTY),CHECK
1343489566,5805,493.7399902343750000,17.1030006408691400,36.3913993835449200,226.0545959472656200,199.3970947265625000,17.1000194549560550,32.3523712158203100,49,107,100,83,67,15364,2147479204,2147768009,2147558482,2147801243,2147314459,2147473856,2147716608,2148246070,133,7,12,10361
1343489683,5804,482.9599914550781000,17.2336997985839840,36.4160995483398440,228.3531951904297000,195.0729980468750000,17.2315597534179700,32.1766700744628900,50,109,98,82,67,15364,2147483648,2147769014,2147564105,2147801956,2147313654,2147476205,2147716260,2148243840,3044,7,12,10398
1343489798,5802,472.6600036621094000,17.3582000732421880,36.4393997192382800,230.5005035400390600,191.0531005859375000,17.3538494110107420,32.0143890380859400,50,107,101,83,69,15364,2147484964,2147767332,2147558838,2147799762,2147309348,2147474889,2147711570,2148245632,2627,7,13,8438
1343489925,5804,461.3999938964844000,17.4106006622314450,36.4491996765136700,230.7364044189453000,189.3347015380859400,17.4061298370361330,31.9792709350585940,50,106,99,83,68,15368,2147483163,2147768658,2147560685,2147799195,2147317019,2147473755,2147709257,2148242249,3225,7,13,25825
1343490054,5800,450.0100097656250000,17.5112991333007800,36.4679985046386700,231.3988952636718800,185.8950042724609400,17.5107898712158200,31.8997898101806640,50,106,99,83,67,15366,2147482752,2147767094,2147560941,2147800484,2147312658,2147474715,2147712365,2148245001,2862,7,13,2785
1343490181,5803,438.6799926757812500,17.6068992614746100,36.4855995178222660,232.6412963867187500,182.6896057128906200,17.6083393096923830,31.7950401306152340,49,106,98,83,66,15364,2147478747,2147765851,2147560969,2147794349,2147310829,2147473280,2147711350,2148244498,3007,7,13,16236
1343490310,5803,426.7999877929687500,17.7019004821777340,36.5024986267089840,233.6540069580078000,179.6600952148437500,17.7005405426025400,31.7047996520996100,50,107,99,82,67,15364,2147482697,2147763401,2147559222,2147798674,2147310400,2147475154,2147710144,2148242432,143,7,12,3795
1343490425,5805,415.9899902343750000,17.7698001861572270,36.5162010192871100,235.3034057617187500,177.4888000488281200,17.7666301727294920,31.5954208374023440,50,107,99,84,67,15365,2147481947,2147764050,2147560000,2147798080,2147315474,2147479707,2147712420,2148242093,510,7,12,28744
1343490540,5803,404.9599914550781000,17.8136997222900400,36.5238990783691400,235.9842987060547000,176.0437927246093800,17.8106193542480470,31.5431900024414060,49,107,98,83,68,15362,2147483181,2147766464,2147560585,2147798464,2147313691,2147472384,2147712384,2148242834,866,8,12,18362
1343490657,5804,393.6799926757812500,17.8642005920410160,36.5337982177734400,236.7521057128906200,174.4013061523437500,17.8606204986572270,31.4843406677246100,49,107,99,84,67,15362,2147485028,2147765165,2147562057,2147798930,2147313792,2147476297,2147707593,2148240374,1060,7,12,46291
1343490772,5801,382.6400146484375000,17.9094009399414060,36.5414009094238300,237.5187072753906200,172.9306030273437500,17.9053993225097660,31.4281005859375000,50,107,99,83,65,15366,2147484726,2147765458,2147559908,2147796150,2147313508,2147474770,2147710390,2148239378,1314,7,13,49727
1343490887,5803,371.6900024414062500,17.9535007476806640,36.5489997863769500,237.8905944824218800,171.4078063964843800,17.9517593383789060,31.3898696899414060,50,106,99,83,66,15366,2147487405,2147767204,2147564452,2147794806,2147314944,2147475300,2147710720,2148240475,1144,7,13,23346
1343491004,5803,360.7200012207031000,18.0114002227783200,36.5565986633300800,237.5776977539062500,169.5634002685547000,18.0079307556152340,31.3800506591796880,50,108,99,83,66,15363,2147486390,2147765878,2147564370,2147795456,2147305782,2147479862,2147714057,2148241627,1400,7,13,7678
1343491119,5804,350.2999877929687500,18.0554008483886720,36.5634002685546900,237.5070953369140600,168.1051025390625000,18.0523395538330080,31.3635902404785160,50,107,99,84,66,15362,2147486144,2147765814,2147569216,2147795291,2147307474,2147477604,2147717028,2148239780,1957,7,12,46369
1343491248,5802,339.2099914550781000,18.1047000885009770,36.5690994262695300,237.3356018066406200,166.4295043945312500,18.1033592224121100,31.3493900299072270,50,107,97,83,66,15367,2147484864,2147770624,2147566784,2147795876,2147305609,2147479780,2147719204,2148239104,1935,7,13,35013
1343491375,5804,329.0299987792969000,18.1459999084472660,36.5744018554687500,237.0523986816406200,165.1240997314453000,18.1431198120117200,31.3452091217041000,50,108,99,84,68,15365,2147483849,2147766930,2147573202,2147797138,2147308516,2147480265,2147720539,2148239872,2822,7,12,16549
1343491526,5803,317.7999877929687500,18.1854000091552730,36.5788993835449200,236.7731933593750000,163.8365020751953000,18.1823406219482420,31.3413696289062500,49,107,98,85,67,15364,2147487570,2147771657,2147578422,2147792850,2147309952,2147477924,2147719350,2148240841,3173,7,12,38474
1343491661,5805,306.4700012207031000,18.2502994537353500,36.5858993530273440,236.1383972167968800,161.6582031250000000,18.2486991882324220,31.3424491882324220,50,107,98,84,66,15359,2147487451,2147775122,2147584365,2147792411,2147307035,2147479634,2147726720,2148240950,44,8,12,38704
1343491776,5802,295.6199951171875000,18.2868003845214840,36.5890998840332000,235.4519042968750000,160.3518066406250000,18.2884998321533200,31.3577499389648440,50,109,99,84,68,15357,2147486738,2147772196,2147593737,2147797046,2147310802,2147486034,2147732288,2148241828,3438,7,12,49979
1343491893,5804,284.4299926757812500,18.3539009094238280,36.5959014892578100,234.5870056152343800,158.1562042236328000,18.3554000854492200,31.3696594238281250,50,108,100,84,66,15356,2147486208,2147776969,2147611995,2147793746,2147308406,2147489846,2147742802,2148240073,3365,7,12,22350
1343492008,5804,273.3299865722656000,18.4365005493164060,36.5952987670898440,231.2866058349609400,155.5036926269531200,18.4362297058105470,31.4942607879638670,50,112,101,85,67,15353,2147487040,2147783643,2147624411,2147794532,2147304813,2147488475,2147748726,2148241261,3440,8,12,46320
1343492123,5803,262.2099914550781000,18.5144996643066400,36.6012992858886700,229.1051025390625000,152.8036041259765600,18.5185203552246100,31.5649108886718750,50,116,99,85,68,15350,2147490267,2147791899,2147651510,2147792036,2147299739,2147492745,2147762377,2148241234,154,8,12,16878
1343492240,5802,251.0200042724609400,18.6119995117187500,36.5900993347168000,229.2899017333984400,149.8224029541015600,18.6093997955322270,31.5161399841308600,50,110,99,84,67,15352,2147492690,2147801526,2147681627,2147793792,2147308096,2147502043,2147783542,2148242733,311,8,12,19486
1343492355,5804,240.2599945068359400,18.7444992065429700,36.5778999328613300,234.5522003173828000,145.2144012451172000,18.7499103546142580,31.1986503601074220,50,109,99,85,65,15354,2147492361,2147818770,2147729014,2147795803,2147306916,2147514587,2147807387,2148243958,578,7,12,417
1343492482,5804,228.7400054931640600,18.8735008239746100,36.5628013610839840,241.8717041015625000,141.1871032714843800,18.8727493286132800,30.8010597229003900,50,109,99,84,66,15355,2147492672,2147853824,2147804781,2147797833,2147309001,2147533120,2147853476,2148243849,604,7,12,30797
1343492599,5805,217.9900054931640600,18.9633998870849600,36.5575981140136700,247.2348022460937500,138.2778930664062500,18.9615001678466800,30.5187606811523440,49,108,101,85,65,15351,2147500516,2147881408,2147883328,2147795355,2147307638,2147553088,2147897627,2148246930,475,7,13,32953
1343492714,5804,207.1399993896484400,18.9988994598388670,36.5497016906738300,250.7469940185547000,137.1324005126953000,18.9964599609375000,30.3474998474121100,50,110,100,85,65,15351,2147508425,2147922578,2147999570,2147793874,2147310573,2147585261,2147971090,2148252132,667,7,12,27034
1343492817,5805,197.2100067138672000,19.0538997650146500,36.5508003234863300,253.2673034667968800,135.2109985351562500,19.0550899505615230,30.2119102478027340,50,110,100,85,65,15349,2147515666,2147982555,2148144429,2147794395,2147312722,2147622171,2148055890,2148257005,882,8,13,11415
1343492892,5801,190.2799987792968800,19.0904998779296880,36.5537986755371100,253.4380035400390600,134.2792053222656200,19.0835304260253900,30.1922702789306640,50,111,99,85,65,15349,2147522752,2148030656,2148269394,2147794532,2147321307,2147654436,2148129344,2148264210,1117,7,12,25322
1343492947,5802,185.5500030517578000,19.0832004547119140,36.5466995239257800,254.3851928710937500,134.3085021972656200,19.0826396942138670,30.1514606475830080,50,110,100,85,65,15352,2147529828,2148072146,2148372205,2147792640,2147328246,2147686848,2148191579,2148265289,1265,7,12,57523
1343493002,5805,180.9100036621093800,19.1046009063720700,36.5489006042480500,254.9465026855468800,133.7041931152343800,19.1010799407959000,30.1191692352294920,50,112,100,84,63,15348,2147532141,2148114294,2148468937,2147793600,2147331081,2147715145,2148251245,2148270912,1386,7,12,33701
1343493057,5803,176.3800048828125000,19.1112003326416000,36.5495986938476560,255.2595062255859400,133.4626007080078000,19.1084594726562500,30.1026000976562500,50,113,99,86,65,15348,2147542390,2148162038,2148593453,2147794806,2147331529,2147751277,2148322907,2148275968,1578,7,12,13125
1343493112,5803,172.0200042724609400,19.1305999755859380,36.5511016845703100,255.2068023681640600,132.8278045654297000,19.1278400421142580,30.0966892242431640,51,118,100,86,63,15349,2147554678,2148222272,2148733796,2147795958,2147342555,2147792246,2148407478,2148278354,1702,7,13,33701
1343493167,5802,167.7700042724609400,19.1459999084472660,36.5530014038085940,255.1566009521484400,132.2639007568359400,19.1450500488281250,30.0916595458984380,52,119,101,87,63,15342,2147568667,2148275520,2148865133,2147796342,2147353892,2147833051,2148494482,2148282825,1628,7,12,26366
1343493245,5803,162.5500030517578000,19.1609992980957030,36.5511016845703100,255.1622009277343800,131.8168945312500000,19.1586894989013670,30.0856494903564450,53,119,100,85,63,15339,2147591040,2148368795,2149065892,2147801024,2147360228,2147894893,2148620873,2148289088,1959,7,12,15980
1343493300,5804,159.5599975585937500,19.1662998199462900,36.5508995056152340,255.1840057373047000,131.6437988281250000,19.1639804840087900,30.0823707580566400,55,119,100,86,64,15336,2147607625,2148440978,2149214720,2147798601,2147367890,2147939702,2148707291,2148295021,2167,7,12,49198
1343493379,5805,155.4799957275390600,19.1916007995605470,36.5530014038085940,255.0821990966797000,130.9375000000000000,19.1855392456054700,30.0774898529052730,56,121,102,87,64,15329,2147636918,2148554322,2149448064,2147799405,2147379126,2148013769,2148840237,2148306587,2393,7,13,39828
1343493458,5801,151.5700073242187500,19.1935997009277340,36.5509986877441400,255.2745971679687500,130.7501983642578000,19.1912593841552730,30.0667400360107420,55,119,101,86,63,15340,2147672027,2148687113,2149711844,2147803044,2147406646,2148104576,2148995081,2148312274,2738,7,12,58100
1343493539,5804,147.4900054931640600,19.2056999206542970,36.5481986999511700,255.3076019287109400,130.3585968017578000,19.2032108306884770,30.0603008270263670,61,122,101,86,63,15331,2147714880,2148844342,2150021942,2147802093,2147427209,2148204964,2149180352,2148322313,2963,7,12,44122
1343493618,5801,143.3399963378906200,19.2189998626709000,36.5483016967773440,255.2790069580078000,129.9335021972656200,19.2161903381347660,30.0558891296386720,65,129,101,85,63,15327,2147767835,2149005193,2150361892,2147808685,2147454637,2148310400,2149363894,2148336722,3044,7,12,36543
1343493697,5803,138.9700012207031200,19.2318992614746100,36.5490989685058600,255.3704986572265600,129.5534973144531200,19.2278003692626950,30.0470600128173830,63,125,102,87,65,15316,2147826404,2149197284,2150747657,2147812397,2147476196,2148423414,2149580672,2148351204,3342,7,12,39663
1343493764,5803,135.0700073242187500,19.2511997222900400,36.5502014160156250,255.3908996582031200,128.8713073730468800,19.2486305236816400,30.0375308990478500,73,129,101,88,64,15311,2147889974,2149393188,2151146843,2147819017,2147504073,2148543844,2149793746,2148362861,3502,7,12,57702
1343493833,5800,130.9600067138672000,19.2742004394531250,36.5519981384277340,255.2680053710937500,128.1437988281250000,19.2708396911621100,30.0333194732666000,80,134,102,88,64,15301,2147982939,2149669366,2151682697,2147823606,2147547547,2148689069,2150063433,2148386368,3405,7,12,26850
1343493900,5805,126.9000015258789000,19.2847003936767580,36.5535011291503900,255.4295959472656200,127.7480010986328100,19.2829303741455080,30.0212402343750000,86,129,102,87,63,15300,2148105398,2150017234,2152333878,2147832795,2147609161,2148867419,2150390619,2148407232,38,7,12,55800
1343493967,5807,122.7600021362304700,19.3118000030517580,36.5581016540527340,255.3406982421875000,126.6586990356445300,19.3162002563476560,30.0109691619873050,94,135,101,87,65,15288,2148281499,2150499090,2153204324,2147853750,2147673846,2149103012,2150797732,2148438098,131,7,13,38527
1343494022,5805,119.3399963378906200,19.3460998535156250,36.5625991821289060,255.2174987792968800,125.7255020141601600,19.3446998596191400,30.0043697357177730,101,138,104,88,63,15283,2148446400,2150923318,2153978029,2147869129,2147748534,2149306651,2151145682,2148462299,173,7,12,1833
1343494089,5804,115.1200027465820300,19.3563995361328120,36.5588989257812500,255.2937011718750000,125.4582977294921900,19.3528594970703120,29.9974308013916000,108,141,103,89,64,15274,2148702363,2151565110,2155132845,2147893540,2147851227,2149597284,2151654857,2148504923,232,7,12,1473
1343494166,5803,110.7600021362304700,19.3843994140625000,36.5592002868652340,255.8236999511718800,124.6136016845703100,19.3786602020263670,29.9636192321777340,123,145,104,88,64,15255,2148942436,2152165083,2156213787,2147925302,2147928374,2149811675,2152054875,2148543433,226,7,12,17395
1343494257,5804,107.0299987792968800,19.3983993530273440,36.5614013671875000,255.8096008300781200,124.0836029052734400,19.3948497772216800,29.9574203491210940,129,150,104,89,63,15245,2149246400,2152959625,2157680466,2147967296,2148044333,2150125915,2152652077,2148593398,12,7,12,24432
1343494348,5805,103.8600006103515600,19.4132995605468750,36.5621986389160160,256.0072021484375000,123.6048965454101600,19.4094791412353500,29.9428005218505860,135,146,104,89,64,15243,2149599168,2153784274,2159076114,2148013805,2148171712,2150432530,2153178093,2148643785,3290,7,12,16071
1343494471,5804,100.0400009155273400,19.4307994842529300,36.5597000122070300,257.0130004882812500,123.0259017944336000,19.4271602630615230,29.8921699523925780,139,146,104,88,65,15227,2150351186,2155466240,2161603977,2148089453,2148415808,2150970944,2154041499,2148732534,2946,7,13,33059
1343494526,5805,97.7600021362304700,19.4533996582031250,36.5577011108398440,258.6072998046875000,122.2498016357421900,19.4508800506591800,29.8146305084228500,143,141,105,88,65,15225,2150923108,2156663369,2163325540,2148145810,2148589156,2151342144,2154631570,2148791396,2775,7,13,64325
1343494581,5802,95.4400024414062500,19.4930000305175780,36.5610008239746100,259.0242004394531000,120.8880996704101600,19.4924793243408200,29.7791996002197270,151,144,103,91,65,15212,2151668937,2158343122,2165824585,2148219958,2148800566,2151858907,2155456548,2148877942,3018,7,13,15671
1343494636,5804,93.2500000000000000,19.5412006378173830,36.5671997070312500,258.8360900878906000,119.5483016967773400,19.5334300994873050,29.7699394226074220,162,145,106,90,65,15190,2152274843,2159582866,2167442605,2148276918,2148981028,2152160859,2155863442,2148934774,2983,7,13,31625
1343494691,5805,91.1200027465820300,19.5664005279541000,36.5666007995605500,258.8970947265625000,118.5092010498046900,19.5651798248291000,29.7540893554687500,166,151,107,90,65,15182,2152512548,2159882377,2167293174,2148284187,2149042139,2152165321,2155727396,2148935314,3181,7,13,8846
1343494746,5805,89.0599975585937500,19.6056995391845700,36.5685997009277340,259.0759887695312500,117.2919006347656200,19.6023902893066400,29.7309799194335940,157,147,105,92,66,15175,2154305700,2164015442,2173701046,2148488219,2149625947,2153573760,2158070637,2149165952,3009,7,13,61025
1343494824,5805,85.9199981689453100,19.6690006256103500,36.5694007873535160,260.1536865234375000,115.1968002319336000,19.6664390563964840,29.6587009429931640,149,146,107,91,67,15137,2152918134,2159769892,2165122688,2148254573,2149129069,2151901796,2154711963,2148886317,2863,7,12,40480
1343494879,5802,83.3399963378906200,19.7467002868652340,36.5695991516113300,263.8096008300781000,112.5593032836914000,19.7470798492431640,29.4726295471191400,125,138,107,90,66,15159,2158149083,2170822134,2181323163,2148840886,2150832393,2155933979,2161071442,2149521060,2802,7,12,18960
1343494934,5800,80.9899978637695300,19.8111000061035160,36.5736007690429700,265.7196044921875000,110.7556991577148400,19.8022403717041000,29.3711891174316400,107,139,105,90,65,15168,2155787273,2164529572,2170210925,2148477083,2150115154,2153846281,2157036864,2149149037,2762,7,13,29020
1343494989,5804,78.6800003051757800,19.8815994262695300,36.5782012939453100,266.6119079589844000,108.4157028198242200,19.8738193511962900,29.3050498962402340,101,134,105,88,66,15161,2155849133,2163770843,2168051254,2148414957,2150205440,2153786212,2156483401,2149098185,2938,7,13,28138
1343495044,5803,76.5000000000000000,19.9475002288818360,36.5816993713378900,267.2759094238281000,105.9982986450195300,19.9477901458740230,29.2472991943359380,98,137,105,90,64,15174,2167315574,2185514459,2197171529,2149682459,2154152877,2162244251,2168366482,2150347968,2985,7,12,5571
1343495099,5804,74.5100021362304700,20.0487995147705080,36.5802001953125000,267.8895874023437500,102.7602996826171900,20.0468902587890620,29.1814002990722660,89,134,106,90,62,15168,2164236772,2177949924,2185081801,2149220022,2153341001,2159872731,2164170441,2149922944,2851,7,13,39655
1343495157,5804,72.4199981689453100,20.1800994873046880,36.5829010009765600,268.8305969238281000,98.8377304077148400,20.1669902801513670,29.0939807891845700,80,139,107,90,63,15174,2165190966,2178224777,2183818916,2149208457,2153946550,2160593618,2164384740,2149943835,2375,7,13,55263
1343495212,5804,70.3399963378906200,20.2688007354736330,36.5862998962402340,270.4082031250000000,96.3882827758789000,20.2420101165771500,28.9998397827148440,80,139,106,91,60,15166,2174140909,2192560923,2200746294,2150152786,2157694107,2167526107,2172807405,2150854811,1938,8,13,12725
1343495267,5803,68.1999969482421900,20.3274993896484380,36.5826988220214840,271.0132141113281000,94.3424530029296900,20.3046894073486330,28.9498805999755860,78,142,109,90,61,15180,2184076269,2208217051,2219555794,2151431478,2161542683,2174274331,2180839286,2151774573,2006,8,13,49877
1343495322,5802,65.9400024414062500,20.3593006134033200,36.5826988220214840,271.2567138671875000,92.9718780517578100,20.3466796875000000,28.9230003356933600,77,140,108,92,60,15171,2188356160,2213522267,2224848950,2152051593,2163538331,2177268260,2183797449,2152150198,2500,7,13,10357
1343495377,5802,63.5099983215332000,20.4333000183105470,36.5806007385253900,271.4879150390625000,90.5227279663086000,20.4217395782470700,28.8830604553222660,77,139,106,91,60,15168,2187831021,2210383552,2219370907,2152066880,2163758043,2176662774,2181989650,2152028361,2676,7,13,28709
1343495432,5803,61.1300010681152340,20.5359992980957030,36.5797004699707000,271.6054077148437500,87.2686004638671900,20.5215091705322270,28.8374099731445300,72,144,108,91,60,15164,2170080685,2180234733,2181487561,2149627337,2157002322,2163592064,2165096128,2150122816,2772,7,13,55946
1343495490,5805,58.9199981689453100,20.6257991790771500,36.5801010131835940,272.3187866210937500,84.3358764648437500,20.6114501953125000,28.7726306915283200,73,140,108,91,62,15168,2203480960,2231632064,2243633435,2154942866,2171146084,2188079177,2194324123,2153639104,2992,7,12,34173
1343495545,5805,57.2700004577636700,20.6732997894287100,36.5800018310546900,273.2091064453125000,82.5262832641601600,20.6669692993164060,28.7148990631103500,69,140,108,91,59,15170,2212891702,2243825060,2255827401,2156098916,2175118656,2194033746,2200321133,2154431606,3032,7,13,52315
1343495636,5803,55.3699989318847660,20.7443008422851560,36.5778999328613300,274.4168090820312500,80.1031875610351600,20.7413196563720700,28.6373291015625000,71,139,109,92,63,15166,2218885997,2249651968,2260590034,2156890093,2179128731,2199459026,2205423798,2155159570,1851,8,13,33147
1343495814,5804,53.4599990844726560,20.9676990509033200,36.5745010375976560,275.9989013671875000,72.6519775390625000,20.9701099395751950,28.4831199645996100,65,142,108,91,62,15164,2225888594,2256119140,2265715995,2158026651,2183995401,2205236141,2209712649,2155815808,1260,7,12,51155
1343495886,5804,51.7799987792968750,21.1198997497558600,36.5777015686035160,277.6709899902344000,68.5092773437500000,21.0974102020263670,28.3671703338623050,63,142,108,92,64,15157,2198426870,2213335469,2213602861,2153256045,2172524955,2184651245,2184670811,2152629686,1271,7,12,25611
1343495971,5803,49.6800003051757800,21.3404006958007800,36.5933990478515600,277.4887084960937500,61.1365509033203100,21.3241291046142580,28.2830390930175780,63,143,107,94,59,15133,2251107200,2283073856,2291557522,2162360813,2198572918,2223129216,2225217984,2158160256,1621,7,12,17905
1343496040,5802,47.8300018310546900,21.4463005065917970,36.5966987609863300,277.6736145019531000,57.3950119018554700,21.4392795562744140,28.2297592163085940,64,145,110,94,58,15156,2244784292,2270590893,2275136704,2161368731,2197327661,2219135085,2219217197,2157531428,1505,7,13,26333
1343496121,5803,45.5000000000000000,21.5167007446289060,36.5989990234375000,277.9881896972656000,54.7851600646972660,21.5196304321289060,28.1854801177978500,62,141,110,94,58,15138,2271389385,2301007680,2306506998,2166792466,2212269769,2238025152,2236889270,2160252452,1098,7,13,26706
1343496166,5803,43.4099998474121100,21.6319999694824220,36.5915985107421900,277.6752014160156000,50.2330398559570300,21.6598606109619140,28.1414699554443360,60,146,107,93,62,15157,2278560932,2305157540,2308602989,2168656201,2217997120,2242977197,2239581147,2161111789,991,8,12,56679
1343496199,5802,41.8199996948242200,21.9172992706298830,36.5789985656738300,277.1867065429687500,42.3440818786621100,21.9030990600585940,28.0632400512695300,58,145,111,92,62,15160,2255818953,2273803620,2272378404,2163950784,2207256548,2225720832,2220339108,2158385709,965,7,13,5911
1343496256,5806,39.8499984741210940,22.1009998321533200,36.5668983459472660,277.9446105957031000,37.2623596191406250,22.0599403381347660,27.9721298217773440,59,140,109,94,60,15154,2272304530,2291911442,2291438034,2168151707,2219323638,2240732306,2234507328,2160647972,709,8,13,56436
1343496432,5803,37.7999992370605500,22.3101005554199220,36.5075988769531250,279.0791931152344000,28.9237499237060550,22.3175697326660160,27.8272590637207030,58,141,109,91,59,15160,2318771428,2343450697,2346954304,2178915236,2249916891,2277839963,2268295826,2166343698,761,7,13,44956
1343496525,5803,35.8899993896484400,22.5044002532959000,36.4986000061035160,279.3729858398437500,22.3818607330322270,22.5199394226074220,27.7363700866699220,57,141,107,94,59,15156,2329688237,2354342912,2356227474,2183354413,2262301476,2289837531,2276774134,2168213604,817,8,12,11089
1343496821,5805,33.7799987792968750,23.1361007690429700,36.4804000854492200,275.5170898437500000,3.9869160652160645,23.0901908874511720,27.6592998504638670,55,137,108,94,55,15160,2282634724,2293147117,2288175798,2172124361,2240062454,2254537819,2238313709,2161932772,1361,8,13,47810
1343496986,5804,31.8600006103515620,23.3096008300781250,36.4561996459960940,272.8810119628906000,-3.4382340908050537,23.3209095001220700,27.6702003479003900,55,141,106,93,60,15181,2251847990,2256132379,2248823021,2165406637,2223272073,2232133028,2216610413,2158581074,1034,7,12,55048